Linden, NJ

12:51 AM EST on January 21, 2017 (GMT -0500)
Linden

Weather History for KLDJ - March, 2013

Change the Weather History Date:

Thursday, March 21, 2013

  Actual Average (KEWR) Record (KEWR)
Temperature  
Mean Temperature 36 °F -  
Max Temperature 40 °F 51 °F 76 °F (1938)
Min Temperature 32 °F 35 °F 16 °F (1986)
Degree Days  
Heating Degree Days 29    
Moisture  
Dew Point 18 °F    
Average Humidity 50    
Maximum Humidity 85    
Minimum Humidity 33    
Precipitation  
Precipitation 0.00 in - - ()
Sea Level Pressure  
Sea Level Pressure 29.74 in    
Wind  
Wind Speed 8 mph (NNW)    
Max Wind Speed 15 mph    
Max Gust Speed 22 mph    
Visibility 10 miles    
Events Snow    
Averages and records for this station are not official NWS values.
T = Trace of Precipitation, MM = Missing Value Source: NWS Daily Summary

Daily Weather History Graph

Daily Weather History Graph

Search for Another Location

Airport or City:

Trip Planner

Search our weather history database for the weather conditions in past years. The results will help you decide how hot, cold, wet, or windy it might be!

Date:

Astronomy

Mar. 21, 2013 Rise Set
Actual Time 6:58 AM EDT 7:10 PM EDT
Civil Twilight 6:31 AM EDT 7:37 PM EDT
Nautical Twilight 5:59 AM EDT 8:09 PM EDT
Astronomical Twilight 5:26 AM EDT 8:42 PM EDT
Moon 1:36 PM EDT 3:19 AM EDT
Length of Visible Light 13h 06m
Length of Day
12h 12m
Waxing Gibbous, 68% of the Moon is Illuminated
Mar 21
Waxing Gibbous
Mar 27
Full
Apr 3
Last Quarter
Apr 10
New
Apr 18
First Quarter

Hourly Weather History & Observations

Time (EDT) Temp. Windchill Dew Point Humidity Pressure Visibility Wind Dir Wind Speed Gust Speed Precip Events Conditions
12:15 AM 40.8 °F 35.6 °F 22.3 °F 48% 29.85 in 10.0 mi NNW 8.1 mph - N/A   Overcast
12:35 AM 40.1 °F 36.1 °F 23.2 °F 51% 29.84 in 10.0 mi NNE 5.8 mph - N/A   Overcast
12:55 AM 39.2 °F 35.9 °F 24.1 °F 55% 29.84 in 10.0 mi NNW 4.6 mph - N/A   Overcast
1:15 AM 39.6 °F 36.3 °F 23.0 °F 52% 29.83 in 10.0 mi North 4.6 mph - N/A   Overcast
1:35 AM 39.0 °F 32.8 °F 24.3 °F 55% 29.83 in 10.0 mi NW 9.2 mph - N/A   Overcast
1:55 AM 37.8 °F 32.5 °F 25.7 °F 62% 29.83 in 10.0 mi NNW 6.9 mph - N/A   Mostly Cloudy
2:15 AM 36.5 °F 30.3 °F 27.1 °F 69% 29.83 in 10.0 mi NW 8.1 mph - N/A   Scattered Clouds
2:35 AM 36.3 °F 30.1 °F 27.3 °F 70% 29.82 in 10.0 mi NW 8.1 mph - N/A   Mostly Cloudy
2:55 AM 35.6 °F 29.2 °F 28.4 °F 75% 29.81 in 10.0 mi NW 8.1 mph - N/A   Overcast
3:35 AM 34.7 °F 28.8 °F 29.5 °F 81% 29.81 in 10.0 mi NNW 6.9 mph - N/A   Overcast
3:55 AM 34.3 °F 28.4 °F 30.0 °F 84% 29.80 in 10.0 mi North 6.9 mph - N/A   Overcast
4:15 AM 34.0 °F 28.0 °F 30.0 °F 85% 29.79 in 10.0 mi North 6.9 mph - N/A   Overcast
4:35 AM 33.8 °F 28.6 °F 29.1 °F 83% 29.78 in 10.0 mi North 5.8 mph - N/A   Overcast
5:15 AM 34.2 °F 29.0 °F 28.4 °F 79% 29.78 in 10.0 mi North 5.8 mph - N/A   Overcast
5:35 AM 34.2 °F 30.0 °F 27.1 °F 75% 29.78 in 10.0 mi North 4.6 mph - N/A   Overcast
5:55 AM 34.3 °F 28.4 °F 26.2 °F 72% 29.78 in 10.0 mi NNE 6.9 mph - N/A   Overcast
6:15 AM 34.3 °F 27.0 °F 25.0 °F 69% 29.78 in 10.0 mi North 9.2 mph - N/A   Overcast
6:35 AM 34.3 °F 27.0 °F 23.7 °F 65% 29.79 in 10.0 mi North 9.2 mph - N/A   Overcast
6:55 AM 34.2 °F 28.2 °F 22.6 °F 63% 29.80 in 10.0 mi North 6.9 mph - N/A   Overcast
7:15 AM 33.8 °F 25.8 °F 21.9 °F 62% 29.79 in 10.0 mi North 10.4 mph 17.3 mph N/A   Overcast
7:35 AM 33.4 °F 25.4 °F 19.2 °F 56% 29.79 in 10.0 mi NNW 10.4 mph - N/A   Overcast
8:15 AM 33.1 °F 26.1 °F 18.9 °F 56% 29.79 in 10.0 mi NNW 8.1 mph - N/A   Overcast
8:35 AM 32.9 °F 25.9 °F 18.7 °F 56% 29.79 in 10.0 mi NNW 8.1 mph - N/A   Overcast
8:55 AM 33.1 °F 26.1 °F 18.3 °F 55% 29.78 in 10.0 mi NNW 8.1 mph - N/A   Overcast
9:15 AM 33.1 °F 25.5 °F 18.5 °F 55% 29.78 in 10.0 mi North 9.2 mph - N/A   Overcast
9:35 AM 33.1 °F 25.5 °F 17.1 °F 52% 29.78 in 10.0 mi North 9.2 mph - N/A   Overcast
9:55 AM 33.4 °F 25.4 °F 15.3 °F 47% 29.78 in 10.0 mi NNW 10.4 mph - N/A   Overcast
10:35 AM 35.1 °F 29.3 °F 15.1 °F 44% 29.77 in 10.0 mi North 6.9 mph - N/A   Overcast
10:55 AM 34.7 °F 28.1 °F 14.2 °F 43% 29.76 in 10.0 mi NNE 8.1 mph - N/A   Overcast
11:15 AM 35.6 °F 28.0 °F 12.9 °F 39% 29.75 in 10.0 mi NNW 10.4 mph - N/A   Overcast
11:35 AM 36.0 °F 29.6 °F 14.0 °F 41% 29.75 in 10.0 mi North 8.1 mph - N/A   Overcast
12:15 PM 36.1 °F 29.3 °F 14.0 °F 40% 29.74 in 10.0 mi NW 9.2 mph - N/A   Mostly Cloudy
12:35 PM 36.3 °F 32.5 °F 14.5 °F 41% 29.73 in 10.0 mi North 4.6 mph - N/A   Overcast
12:55 PM 36.7 °F 29.9 °F 14.5 °F 40% 29.73 in 10.0 mi NNW 9.2 mph - N/A   Overcast
1:15 PM 36.7 °F 30.5 °F 16.0 °F 43% 29.71 in 10.0 mi WNW 8.1 mph - N/A Snow Light Snow
1:35 PM 37.2 °F 32.6 °F 13.6 °F 38% 29.70 in 10.0 mi NNW 5.8 mph - N/A   Overcast
1:55 PM 38.3 °F 33.2 °F 14.5 °F 38% 29.70 in 10.0 mi WNW 6.9 mph - N/A   Overcast
2:15 PM 37.9 °F 31.5 °F 15.3 °F 40% 29.69 in 10.0 mi NW 9.2 mph - N/A   Overcast
2:35 PM 37.8 °F 35.3 °F 15.3 °F 40% 29.68 in 10.0 mi North 3.5 mph - N/A   Overcast
3:15 PM 39.6 °F 34.7 °F 16.5 °F 39% 29.67 in 10.0 mi WNW 6.9 mph 16.1 mph N/A   Overcast
3:35 PM 40.3 °F 33.9 °F 14.7 °F 35% 29.66 in 10.0 mi NNW 10.4 mph - N/A   Mostly Cloudy
3:55 PM 40.6 °F 35.4 °F 13.5 °F 33% 29.65 in 10.0 mi NNW 8.1 mph - N/A   Scattered Clouds
4:15 PM 40.1 °F 34.7 °F 13.8 °F 34% 29.65 in 10.0 mi NNW 8.1 mph - N/A   Mostly Cloudy
4:35 PM 40.6 °F 37.5 °F 13.6 °F 33% 29.64 in 10.0 mi NNW 4.6 mph - N/A   Mostly Cloudy
4:55 PM 40.8 °F 35.0 °F 14.9 °F 35% 29.64 in 10.0 mi West 9.2 mph 16.1 mph N/A   Overcast
5:15 PM 40.5 °F 32.8 °F 14.2 °F 34% 29.65 in 10.0 mi WNW 13.8 mph 17.3 mph N/A   Overcast
5:35 PM 39.7 °F 34.9 °F 13.8 °F 35% 29.65 in 10.0 mi NNW 6.9 mph - N/A   Overcast
5:55 PM 40.1 °F 33.6 °F 14.4 °F 35% 29.65 in 10.0 mi WNW 10.4 mph - N/A   Overcast
6:15 PM 39.6 °F 33.0 °F 13.6 °F 35% 29.66 in 10.0 mi West 10.4 mph 16.1 mph N/A   Overcast
6:35 PM 39.2 °F 33.6 °F 14.0 °F 36% 29.66 in 10.0 mi WNW 8.1 mph - N/A   Overcast
6:55 PM 39.4 °F 31.4 °F 12.2 °F 33% 29.67 in 10.0 mi WNW 13.8 mph 19.6 mph N/A   Overcast
7:15 PM 38.7 °F 31.8 °F 11.7 °F 33% 29.68 in 10.0 mi WNW 10.4 mph 19.6 mph N/A   Overcast
7:35 PM 38.3 °F 31.4 °F 11.3 °F 33% 29.68 in 10.0 mi WNW 10.4 mph - N/A   Overcast
7:55 PM 37.6 °F 29.1 °F 10.6 °F 33% 29.69 in 10.0 mi NW 13.8 mph 19.6 mph N/A   Overcast
8:35 PM 36.0 °F 27.1 °F 12.2 °F 38% 29.70 in 10.0 mi WNW 13.8 mph 21.9 mph N/A   Scattered Clouds
8:55 PM 35.2 °F 27.6 °F 13.3 °F 41% 29.71 in 10.0 mi WNW 10.4 mph - N/A   Clear
9:35 PM 34.2 °F 25.2 °F 15.4 °F 46% 29.72 in 10.0 mi WNW 12.7 mph - N/A   Clear
9:55 PM 33.8 °F 24.8 °F 14.9 °F 46% 29.73 in 10.0 mi WNW 12.7 mph 18.4 mph N/A   Clear
10:15 PM 33.8 °F 24.8 °F 14.0 °F 44% 29.73 in 10.0 mi WNW 12.7 mph - N/A   Clear
10:35 PM 33.3 °F 23.2 °F 13.8 °F 45% 29.74 in 10.0 mi WNW 15.0 mph 19.6 mph N/A   Clear
10:55 PM 33.1 °F 23.9 °F 13.6 °F 45% 29.74 in 10.0 mi WNW 12.7 mph 20.7 mph N/A   Clear
11:35 PM 32.5 °F 23.7 °F 13.3 °F 45% 29.75 in 10.0 mi WNW 11.5 mph 20.7 mph N/A   Clear